�������l�o���
Date,Time,MP-1(��Sv/h),MP-2(��Sv/h),MP-3(��Sv/h),MP-4(��Sv/h),MP-5(��Sv/h),MP-6(��Sv/h),MP-7(��Sv/h),MP-8(��Sv/h),����,����(m/s),���J
2018/03/14,00:00,0.852,1.426,0.890,1.658,1.126,0.485,0.852,0.815,�쐼,7.6,��
2018/03/14,00:10,0.853,1.430,0.890,1.657,1.123,0.485,0.851,0.817,���쐼,7.7,��
2018/03/14,00:20,0.854,1.427,0.892,1.657,1.123,0.482,0.851,0.816,���쐼,7.5,��
2018/03/14,00:30,0.853,1.424,0.891,1.658,1.125,0.486,0.851,0.816,�쐼,6.2,��
2018/03/14,00:40,0.853,1.425,0.890,1.658,1.121,0.484,0.851,0.817,�쐼,4.5,��
2018/03/14,00:50,0.853,1.425,0.890,1.658,1.123,0.485,0.850,0.816,�쐼,2.9,��
2018/03/14,01:00,0.852,1.427,0.889,1.658,1.122,0.484,0.849,0.815,��쐼,2.2,��
2018/03/14,01:10,0.854,1.425,0.890,1.659,1.121,0.484,0.850,0.816,��쐼,2.3,��
2018/03/14,01:20,0.853,1.427,0.889,1.658,1.121,0.484,0.851,0.815,��쐼,2.2,��
2018/03/14,01:30,0.852,1.426,0.888,1.656,1.122,0.485,0.848,0.816,��,2.0,��
2018/03/14,01:40,0.852,1.427,0.887,1.657,1.121,0.482,0.848,0.817,��쐼,3.3,��
2018/03/14,01:50,0.851,1.428,0.889,1.658,1.120,0.484,0.849,0.815,��쐼,3.7,��
2018/03/14,02:00,0.849,1.424,0.889,1.658,1.119,0.483,0.846,0.816,��쐼,3.5,��
2018/03/14,02:10,0.854,1.424,0.887,1.654,1.121,0.485,0.848,0.817,��쐼,3.2,��
2018/03/14,02:20,0.851,1.426,0.886,1.657,1.121,0.483,0.848,0.818,�쐼,2.2,��
2018/03/14,02:30,0.852,1.424,0.887,1.656,1.122,0.484,0.849,0.816,���쐼,1.7,��
2018/03/14,02:40,0.851,1.424,0.887,1.655,1.120,0.484,0.849,0.817,�쐼,2.0,��
2018/03/14,02:50,0.850,1.424,0.886,1.660,1.120,0.483,0.848,0.817,��쐼,2.8,��
2018/03/14,03:00,0.851,1.426,0.888,1.656,1.122,0.483,0.847,0.816,��,2.2,��
2018/03/14,03:10,0.853,1.427,0.889,1.656,1.123,0.484,0.847,0.816,���쐼,2.8,��
2018/03/14,03:20,0.851,1.428,0.889,1.656,1.122,0.482,0.848,0.815,��,5.6,��
2018/03/14,03:30,0.852,1.425,0.890,1.659,1.122,0.483,0.848,0.817,���k��,5.4,��
2018/03/14,03:40,0.850,1.428,0.889,1.659,1.120,0.482,0.848,0.816,���쐼,4.8,��
2018/03/14,03:50,0.850,1.429,0.889,1.660,1.123,0.483,0.849,0.818,��쐼,4.6,��
2018/03/14,04:00,0.851,1.426,0.888,1.660,1.120,0.482,0.848,0.817,�쐼,5.2,��
2018/03/14,04:10,0.851,1.424,0.889,1.657,1.121,0.484,0.849,0.816,���쐼,6.4,��
2018/03/14,04:20,0.851,1.424,0.888,1.658,1.122,0.484,0.847,0.815,���쐼,4.3,��
2018/03/14,04:30,0.853,1.428,0.890,1.659,1.124,0.483,0.848,0.816,���쐼,2.9,��
2018/03/14,04:40,0.853,1.426,0.891,1.659,1.122,0.484,0.848,0.817,��,4.8,��
2018/03/14,04:50,0.853,1.428,0.891,1.661,1.124,0.483,0.847,0.816,��,7.3,��
2018/03/14,05:00,0.854,1.430,0.892,1.661,1.125,0.484,0.851,0.816,��,5.6,��
2018/03/14,05:10,0.854,1.429,0.891,1.663,1.124,0.487,0.848,0.816,���쐼,5.8,��
2018/03/14,05:20,0.856,1.430,0.891,1.665,1.122,0.484,0.850,0.817,���쐼,5.8,��
2018/03/14,05:30,0.854,1.429,0.891,1.661,1.125,0.484,0.849,0.817,���쐼,4.7,��
2018/03/14,05:40,0.853,1.430,0.890,1.662,1.122,0.483,0.850,0.817,�쐼,5.0,��
2018/03/14,05:50,0.852,1.427,0.891,1.662,1.124,0.485,0.850,0.820,�쐼,3.7,��
2018/03/14,06:00,0.854,1.429,0.890,1.661,1.125,0.484,0.849,0.818,��,2.9,��
2018/03/14,06:10,0.854,1.429,0.891,1.664,1.126,0.484,0.849,0.816,��,2.2,��
2018/03/14,06:20,0.853,1.430,0.889,1.659,1.123,0.484,0.850,0.817,��쓌,3.2,��
2018/03/14,06:30,0.851,1.427,0.889,1.661,1.123,0.483,0.848,0.815,��쓌,3.6,��
2018/03/14,06:40,0.852,1.429,0.888,1.661,1.125,0.483,0.849,0.816,��쐼,2.6,��
2018/03/14,06:50,0.856,1.429,0.890,1.662,1.124,0.484,0.849,0.818,��쐼,2.3,��
2018/03/14,07:00,0.853,1.428,0.890,1.664,1.123,0.484,0.849,0.817,��쐼,2.3,��
2018/03/14,07:10,0.854,1.428,0.891,1.664,1.125,0.485,0.851,0.818,��쐼,2.9,��
2018/03/14,07:20,0.853,1.431,0.891,1.665,1.125,0.485,0.851,0.817,��,2.3,��
2018/03/14,07:30,0.853,1.430,0.890,1.664,1.128,0.485,0.850,0.817,��,2.3,��
2018/03/14,07:40,0.852,1.430,0.891,1.663,1.126,0.483,0.850,0.817,��쐼,2.3,��
2018/03/14,07:50,0.854,1.428,0.891,1.662,1.124,0.486,0.851,0.818,�쐼,4.0,��
2018/03/14,08:00,0.855,1.425,0.890,1.664,1.123,0.486,0.851,0.817,���쐼,2.8,��
2018/03/14,08:10,0.855,1.429,0.892,1.663,1.126,0.485,0.852,0.817,��,4.2,��
2018/03/14,08:20,0.856,1.425,0.893,1.666,1.126,0.486,0.852,0.821,��,5.2,��
2018/03/14,08:30,0.857,1.426,0.893,1.666,1.125,0.487,0.851,0.819,���쐼,5.5,��
2018/03/14,08:40,0.857,1.425,0.891,1.663,1.126,0.487,0.851,0.821,��,6.0,��
2018/03/14,08:50,0.855,1.426,0.891,1.665,1.124,0.487,0.851,0.820,��,4.1,��
2018/03/14,09:00,0.857,1.428,0.892,1.666,1.126,0.484,0.853,0.819,��,7.3,��
2018/03/14,09:10,0.857,1.429,0.894,1.668,1.124,0.484,0.852,0.820,��,5.7,��
2018/03/14,09:20,0.853,1.427,0.892,1.665,1.124,0.484,0.852,0.820,��,4.7,��
2018/03/14,09:30,0.853,1.428,0.891,1.671,1.125,0.485,0.851,0.817,��,7.8,��
2018/03/14,09:40,0.854,1.428,0.892,1.669,1.122,0.485,0.852,0.816,��,9.5,��
2018/03/14,09:50,0.855,1.427,0.894,1.669,1.122,0.485,0.851,0.816,���쐼,5.2,��
2018/03/14,10:00,0.858,1.429,0.894,1.668,1.124,0.487,0.853,0.816,���쐼,5.5,��
2018/03/14,10:10,0.855,1.430,0.893,1.669,1.126,0.484,0.853,0.818,���쐼,6.6,��
2018/03/14,10:20,0.855,1.428,0.893,1.668,1.124,0.485,0.852,0.817,���쐼,5.5,��
2018/03/14,10:30,0.854,1.430,0.892,1.671,1.126,0.485,0.852,0.815,��,8.3,��
2018/03/14,10:40,0.857,1.430,0.892,1.670,1.130,0.485,0.853,0.818,��,7.0,��
2018/03/14,10:50,0.857,1.432,0.894,1.670,1.125,0.485,0.852,0.818,���k��,6.2,��
2018/03/14,11:00,0.858,1.430,0.893,1.670,1.121,0.486,0.853,0.817,���쐼,5.5,��
2018/03/14,11:10,0.860,1.429,0.891,1.672,1.128,0.486,0.852,0.818,��,8.5,��
2018/03/14,11:20,0.858,1.431,0.893,1.669,1.129,0.487,0.852,0.817,��,6.4,��
2018/03/14,11:30,0.858,1.431,0.893,1.671,1.126,0.488,0.850,0.817,���쐼,6.3,��
2018/03/14,11:40,0.861,1.436,0.893,1.668,1.128,0.485,0.853,0.819,���쐼,4.3,��
2018/03/14,11:50,0.859,1.432,0.895,1.673,1.130,0.487,0.852,0.818,��,6.4,��
2018/03/14,12:00,0.859,1.435,0.896,1.671,1.131,0.484,0.852,0.817,��,4.6,��
2018/03/14,12:10,0.856,1.436,0.895,1.671,1.130,0.487,0.853,0.818,���쐼,4.2,��
2018/03/14,12:20,0.859,1.436,0.895,1.674,1.130,0.486,0.855,0.818,���쐼,5.4,��
2018/03/14,12:30,0.860,1.436,0.895,1.672,1.134,0.486,0.853,0.817,���쐼,6.4,��
2018/03/14,12:40,0.860,1.432,0.895,1.672,1.131,0.485,0.853,0.818,���쐼,5.3,��
2018/03/14,12:50,0.862,1.434,0.896,1.667,1.134,0.486,0.855,0.818,��,8.8,��
2018/03/14,13:00,0.860,1.434,0.894,1.674,1.133,0.487,0.852,0.819,��,8.6,��
2018/03/14,13:10,0.862,1.433,0.896,1.672,1.134,0.485,0.854,0.818,��,7.8,��
2018/03/14,13:20,0.863,1.434,0.897,1.673,1.132,0.488,0.855,0.821,��,8.3,��
2018/03/14,13:30,0.862,1.436,0.895,1.672,1.131,0.489,0.854,0.819,��,9.6,��
2018/03/14,13:40,0.862,1.437,0.897,1.676,1.134,0.487,0.854,0.816,���쐼,9.0,��
2018/03/14,13:50,0.860,1.434,0.896,1.673,1.132,0.487,0.856,0.819,��,8.1,��
2018/03/14,14:00,0.862,1.436,0.896,1.673,1.135,0.486,0.854,0.817,���쐼,4.9,��
2018/03/14,14:10,0.861,1.437,0.897,1.674,1.133,0.488,0.854,0.818,��,4.5,��
2018/03/14,14:20,0.864,1.436,0.897,1.676,1.134,0.486,0.853,0.819,��,6.7,��
2018/03/14,14:30,0.862,1.437,0.898,1.675,1.134,0.486,0.855,0.818,��,5.2,��
2018/03/14,14:40,0.863,1.435,0.897,1.676,1.136,0.486,0.853,0.819,��,7.0,��
2018/03/14,14:50,0.863,1.436,0.898,1.674,1.133,0.486,0.853,0.819,��,6.9,��
2018/03/14,15:00,0.864,1.437,0.898,1.677,1.136,0.486,0.856,0.818,��,4.6,��
2018/03/14,15:10,0.864,1.438,0.897,1.675,1.135,0.488,0.854,0.819,��,6.2,��
2018/03/14,15:20,0.861,1.438,0.899,1.677,1.134,0.487,0.853,0.819,��,4.7,��
2018/03/14,15:30,0.861,1.437,0.898,1.675,1.135,0.485,0.854,0.818,��,5.5,��
2018/03/14,15:40,0.863,1.437,0.896,1.678,1.134,0.486,0.855,0.819,��,6.7,��
2018/03/14,15:50,0.860,1.439,0.896,1.678,1.134,0.486,0.854,0.819,��,11.0,��
2018/03/14,16:00,0.861,1.439,0.896,1.678,1.133,0.487,0.855,0.818,��,9.1,��
2018/03/14,16:10,0.862,1.443,0.897,1.676,1.134,0.487,0.855,0.820,��,8.5,��
2018/03/14,16:20,0.860,1.438,0.896,1.676,1.134,0.489,0.854,0.818,��,8.8,��
2018/03/14,16:30,0.860,1.437,0.898,1.676,1.134,0.487,0.855,0.817,��,8.1,��
2018/03/14,16:40,0.860,1.440,0.897,1.675,1.133,0.488,0.854,0.819,��,7.8,��
2018/03/14,16:50,0.860,1.442,0.897,1.678,1.134,0.489,0.854,0.819,���쐼,6.4,��
2018/03/14,17:00,0.859,1.443,0.898,1.676,1.132,0.488,0.853,0.819,��,6.4,��
2018/03/14,17:10,0.860,1.441,0.897,1.674,1.135,0.489,0.852,0.820,��,6.4,��
2018/03/14,17:20,0.860,1.443,0.897,1.677,1.135,0.487,0.852,0.819,��,7.3,��
2018/03/14,17:30,0.860,1.443,0.899,1.677,1.130,0.488,0.852,0.820,��,6.0,��
2018/03/14,17:40,0.859,1.444,0.898,1.680,1.136,0.487,0.853,0.819,��,6.2,��
2018/03/14,17:50,0.858,1.443,0.896,1.679,1.132,0.490,0.852,0.819,��,4.8,��
2018/03/14,18:00,0.859,1.441,0.898,1.682,1.134,0.488,0.853,0.821,��,5.2,��
2018/03/14,18:10,0.863,1.445,0.901,1.681,1.132,0.489,0.851,0.820,��,5.9,��
2018/03/14,18:20,0.862,1.440,0.900,1.681,1.138,0.488,0.855,0.822,��,6.2,��
2018/03/14,18:30,0.863,1.441,0.901,1.681,1.135,0.488,0.852,0.821,��,6.8,��
2018/03/14,18:40,0.862,1.442,0.898,1.682,1.135,0.487,0.853,0.820,��,6.3,��
2018/03/14,18:50,0.862,1.442,0.900,1.681,1.137,0.489,0.854,0.820,���k��,6.3,��
2018/03/14,19:00,0.862,1.441,0.901,1.679,1.135,0.488,0.852,0.820,���k��,5.0,��
2018/03/14,19:10,0.860,1.440,0.897,1.683,1.136,0.487,0.852,0.821,��,4.5,��
2018/03/14,19:20,0.862,1.442,0.897,1.679,1.137,0.487,0.854,0.821,��,5.9,��
2018/03/14,19:30,0.861,1.439,0.900,1.684,1.138,0.487,0.854,0.821,���k��,4.7,��
2018/03/14,19:40,0.859,1.443,0.898,1.679,1.137,0.488,0.854,0.820,�k��,4.3,��
2018/03/14,19:50,0.859,1.442,0.898,1.679,1.134,0.487,0.854,0.821,�k��,5.6,��
2018/03/14,20:00,0.862,1.442,0.899,1.678,1.135,0.487,0.853,0.820,���k��,6.8,��
2018/03/14,20:10,0.861,1.441,0.896,1.681,1.136,0.486,0.853,0.821,���k��,5.2,��
2018/03/14,20:20,0.859,1.441,0.898,1.675,1.136,0.487,0.853,0.819,�k,3.1,��
2018/03/14,20:30,0.860,1.443,0.899,1.677,1.137,0.487,0.854,0.821,�k�k��,2.3,��
2018/03/14,20:40,0.859,1.442,0.900,1.679,1.135,0.487,0.855,0.819,�k�k��,1.2,��
2018/03/14,20:50,0.860,1.440,0.897,1.679,1.137,0.486,0.855,0.821,���k��,3.0,��
2018/03/14,21:00,0.860,1.442,0.899,1.680,1.135,0.486,0.854,0.821,���k��,4.2,��
2018/03/14,21:10,0.861,1.442,0.901,1.679,1.133,0.486,0.854,0.818,���k��,5.1,��
2018/03/14,21:20,0.860,1.441,0.897,1.678,1.132,0.488,0.854,0.820,���k��,6.5,��
2018/03/14,21:30,0.862,1.442,0.900,1.681,1.137,0.485,0.853,0.820,�k��,7.5,��
2018/03/14,21:40,0.859,1.442,0.897,1.680,1.136,0.486,0.853,0.819,���k��,8.5,��
2018/03/14,21:50,0.860,1.441,0.897,1.681,1.137,0.486,0.853,0.820,���k��,6.4,��
2018/03/14,22:00,0.860,1.440,0.898,1.679,1.135,0.486,0.853,0.819,���k��,4.4,��
2018/03/14,22:10,0.861,1.439,0.897,1.676,1.135,0.486,0.851,0.819,���k��,3.3,��
2018/03/14,22:20,0.860,1.441,0.897,1.678,1.137,0.485,0.854,0.820,��,3.6,��
2018/03/14,22:30,0.858,1.441,0.897,1.677,1.134,0.486,0.853,0.820,��,4.3,��
2018/03/14,22:40,0.861,1.441,0.898,1.680,1.135,0.485,0.852,0.820,��,4.3,��
2018/03/14,22:50,0.862,1.439,0.897,1.679,1.135,0.485,0.854,0.819,���k��,3.1,��
2018/03/14,23:00,0.859,1.438,0.898,1.678,1.134,0.486,0.852,0.821,���k��,2.6,��
2018/03/14,23:10,0.861,1.441,0.899,1.678,1.133,0.485,0.852,0.819,��,1.7,��
2018/03/14,23:20,0.860,1.439,0.897,1.676,1.134,0.485,0.852,0.820,��쐼,2.2,��
2018/03/14,23:30,0.858,1.438,0.898,1.677,1.137,0.486,0.853,0.819,��쐼,3.1,��
2018/03/14,23:40,0.859,1.440,0.897,1.679,1.136,0.485,0.852,0.820,�쐼,2.9,��
2018/03/14,23:50,0.859,1.439,0.896,1.677,1.136,0.485,0.853,0.818,�쐼,2.8,��
